Station Historical Data
Daily Summary for September 3, 2017 Units:  English    Metric   Both
« Previous Day
Next Day »
Daily Weekly Monthly Yearly Custom
  High: Low: Average:
Temperature: 68.8 °F 56.2 °F 62.1 °F
Dew Point: 60.1 °F 52.5 °F 55.5 °F
Humidity: 93% 62% 80%
Wind Speed: 18.0mph 0.0mph 3.6mph
Wind Gust: 23.0mph - -
Wind- - WSW
Pressure: 29.96 in 29.80 in -
Precipitation: 0.00 in    
Historical Graphs
 
 
Tabular Data for September 3, 2017
Time Temperature Dew Point Pressure Wind Wind Speed Wind Gust Humidity Rainfall Rate (Hourly)
00:04 57.5 °F 52.7 °F 29.96 in Calm   3.0 mph 84% 0.01 in
00:09 57.3 °F 52.5 °F 29.96 in Calm   2.0 mph 84% 0.02 in
00:14 57.3 °F 52.8 °F 29.95 in Calm     85% 0.02 in
00:19 57.2 °F 53.0 °F 29.95 in Calm   1.0 mph 86% 0.02 in
00:24 57.2 °F 53.0 °F 29.95 in Calm   2.0 mph 86% 0.02 in
00:29 57.3 °F 53.1 °F 29.95 in Calm   2.0 mph 86% 0.02 in
00:34 57.2 °F 53.4 °F 29.94 in Calm   2.0 mph 87% 0.02 in
00:39 57.3 °F 53.5 °F 29.94 in Calm   2.0 mph 87% 0.02 in
00:44 57.2 °F 53.4 °F 29.94 in SE 2.0 mph 3.0 mph 87% 0.02 in
00:49 57.2 °F 53.4 °F 29.94 in Calm   3.0 mph 87% 0.02 in
00:54 57.1 °F 53.3 °F 29.93 in Calm   3.0 mph 87% 0.02 in
00:59 57.0 °F 53.5 °F 29.93 in Calm   4.0 mph 88% 0.02 in
01:05 57.0 °F 53.5 °F 29.93 in SE 1.0 mph 4.0 mph 88% 0.02 in
01:10 57.0 °F 53.5 °F 29.93 in South 1.0 mph 4.0 mph 88% 0.01 in
01:15 56.9 °F 53.4 °F 29.93 in Calm   3.0 mph 88% 0.01 in
01:20 56.8 °F 53.3 °F 29.92 in Calm   3.0 mph 88% 0.02 in
01:25 56.8 °F 53.3 °F 29.92 in Calm   2.0 mph 88% 0.02 in
01:30 56.7 °F 53.2 °F 29.92 in Calm     88% 0.02 in
01:35 56.8 °F 53.6 °F 29.92 in Calm     89% 0.02 in
01:40 56.7 °F 53.5 °F 29.92 in Calm     89% 0.01 in
01:45 56.7 °F 53.5 °F 29.92 in Calm     89% 0.01 in
01:50 56.7 °F 53.5 °F 29.91 in Calm     89% 0.01 in
01:55 56.6 °F 53.4 °F 29.91 in Calm     89% 0.01 in
02:00 56.7 °F 53.5 °F 29.91 in Calm     89% 0.01 in
02:05 56.6 °F 53.4 °F 29.91 in Calm     89% 0.01 in
02:10 56.6 °F 53.7 °F 29.90 in Calm   5.0 mph 90% 0.01 in
02:15 56.6 °F 53.4 °F 29.90 in Calm   5.0 mph 89% 0.01 in
02:20 56.6 °F 53.4 °F 29.90 in Calm   3.0 mph 89% 0.00 in
02:25 56.5 °F 53.3 °F 29.90 in South 3.0 mph 4.0 mph 89% 0.00 in
02:30 56.5 °F 53.6 °F 29.90 in South 3.0 mph 6.0 mph 90% 0.00 in
02:35 56.4 °F 53.5 °F 29.89 in Calm   5.0 mph 90% 0.00 in
02:40 56.4 °F 53.5 °F 29.89 in South 1.0 mph 5.0 mph 90% 0.00 in
02:45 56.4 °F 53.5 °F 29.89 in Calm   3.0 mph 90% 0.00 in
02:50 56.3 °F 53.4 °F 29.88 in South 1.0 mph 6.0 mph 90% 0.00 in
02:55 56.3 °F 53.4 °F 29.88 in South 1.0 mph 6.0 mph 90% 0.00 in
03:00 56.3 °F 53.4 °F 29.88 in Calm   3.0 mph 90% 0.00 in
03:05 56.2 °F 53.3 °F 29.88 in Calm   4.0 mph 90% 0.00 in
03:10 56.2 °F 53.3 °F 29.88 in Calm   4.0 mph 90% 0.00 in
03:15 56.2 °F 53.3 °F 29.88 in Calm   2.0 mph 90% 0.01 in
03:20 56.2 °F 53.6 °F 29.87 in Calm   1.0 mph 91% 0.01 in
03:25 56.2 °F 53.3 °F 29.87 in Calm     90% 0.01 in
03:30 56.2 °F 53.3 °F 29.87 in Calm     90% 0.01 in
03:35 56.3 °F 53.7 °F 29.87 in Calm     91% 0.01 in
03:40 56.2 °F 53.6 °F 29.87 in Calm     91% 0.01 in
03:45 56.3 °F 53.7 °F 29.87 in Calm     91% 0.01 in
03:50 56.3 °F 53.7 °F 29.87 in Calm   3.0 mph 91% 0.01 in
03:55 56.3 °F 53.7 °F 29.86 in Calm     91% 0.02 in
04:00 56.3 °F 53.7 °F 29.86 in Calm     91% 0.02 in
04:05 56.2 °F 53.6 °F 29.86 in Calm     91% 0.02 in
04:10 56.2 °F 53.6 °F 29.86 in Calm   3.0 mph 91% 0.02 in
04:15 56.3 °F 53.7 °F 29.86 in Calm   3.0 mph 91% 0.01 in
04:20 56.3 °F 53.7 °F 29.86 in Calm   2.0 mph 91% 0.02 in
04:25 56.3 °F 53.7 °F 29.86 in Calm   3.0 mph 91% 0.02 in
04:30 56.2 °F 53.6 °F 29.86 in South 1.0 mph 4.0 mph 91% 0.02 in
04:35 56.3 °F 53.7 °F 29.85 in South 1.0 mph 4.0 mph 91% 0.03 in
04:40 56.3 °F 53.7 °F 29.85 in South 1.0 mph 3.0 mph 91% 0.03 in
04:44 56.3 °F 53.7 °F 29.85 in South 1.0 mph 3.0 mph 91% 0.03 in
04:50 56.3 °F 53.7 °F 29.85 in Calm   2.0 mph 91% 0.03 in
04:55 56.3 °F 53.7 °F 29.85 in Calm   2.0 mph 91% 0.02 in
05:00 56.3 °F 53.7 °F 29.84 in Calm   3.0 mph 91% 0.02 in
05:05 56.3 °F 53.7 °F 29.84 in Calm   2.0 mph 91% 0.02 in
05:10 56.4 °F 53.8 °F 29.84 in Calm   2.0 mph 91% 0.02 in
05:14 56.4 °F 54.1 °F 29.84 in Calm   2.0 mph 92% 0.03 in
05:20 56.4 °F 54.1 °F 29.84 in Calm   2.0 mph 92% 0.02 in
05:25 56.4 °F 53.8 °F 29.84 in Calm   2.0 mph 91% 0.02 in
05:30 56.5 °F 53.9 °F 29.83 in Calm   2.0 mph 91% 0.02 in
05:35 56.5 °F 54.2 °F 29.83 in Calm     92% 0.01 in
05:40 56.6 °F 54.3 °F 29.83 in Calm   5.0 mph 92% 0.01 in
05:45 56.6 °F 54.3 °F 29.83 in Calm   6.0 mph 92% 0.01 in
05:49 56.7 °F 54.4 °F 29.83 in South 2.0 mph 6.0 mph 92% 0.01 in
05:55 56.7 °F 54.4 °F 29.83 in Calm   4.0 mph 92% 0.01 in
06:00 56.7 °F 54.4 °F 29.83 in South 2.0 mph 6.0 mph 92% 0.01 in
06:05 56.8 °F 54.2 °F 29.83 in Calm   2.0 mph 91% 0.01 in
06:10 56.9 °F 54.3 °F 29.83 in SSW 1.0 mph 4.0 mph 91% 0.01 in
06:15 56.9 °F 54.3 °F 29.83 in Calm   3.0 mph 91% 0.00 in
06:19 57.0 °F 54.4 °F 29.83 in SSW 1.0 mph 6.0 mph 91% 0.00 in
06:24 57.0 °F 54.4 °F 29.83 in South 1.0 mph 6.0 mph 91% 0.00 in
06:30 57.1 °F 54.5 °F 29.83 in South 1.0 mph 7.0 mph 91% 0.00 in
06:35 57.1 °F 54.5 °F 29.83 in SSW 2.0 mph 7.0 mph 91% 0.00 in
06:40 57.2 °F 54.6 °F 29.83 in SSW 2.0 mph 6.0 mph 91% 0.00 in
06:45 57.3 °F 54.7 °F 29.83 in SSW 1.0 mph 6.0 mph 91% 0.01 in
06:49 57.3 °F 54.7 °F 29.83 in SSW 4.0 mph 7.0 mph 91% 0.02 in
06:55 57.4 °F 54.8 °F 29.83 in SSW 2.0 mph 8.0 mph 91% 0.02 in
06:59 57.5 °F 54.9 °F 29.83 in SW 2.0 mph 7.0 mph 91% 0.03 in
07:05 57.5 °F 54.9 °F 29.83 in SW 3.0 mph 6.0 mph 91% 0.03 in
07:10 57.6 °F 55.0 °F 29.83 in SSW 4.0 mph 6.0 mph 91% 0.04 in
07:15 57.6 °F 55.0 °F 29.83 in Calm   5.0 mph 91% 0.04 in
07:20 57.5 °F 54.9 °F 29.83 in SSW 3.0 mph 6.0 mph 91% 0.06 in
07:24 57.5 °F 54.9 °F 29.83 in SSW 1.0 mph 6.0 mph 91% 0.07 in
07:30 57.6 °F 55.0 °F 29.83 in SSW 1.0 mph 6.0 mph 91% 0.09 in
07:35 57.6 °F 55.0 °F 29.84 in SSW 1.0 mph 6.0 mph 91% 0.10 in
07:40 57.6 °F 55.0 °F 29.83 in SSW 2.0 mph 7.0 mph 91% 0.12 in
07:45 57.7 °F 55.1 °F 29.84 in SW 1.0 mph 3.0 mph 91% 0.13 in
07:50 57.7 °F 55.1 °F 29.84 in Calm   5.0 mph 91% 0.14 in
07:55 57.7 °F 55.4 °F 29.84 in SSW 1.0 mph 7.0 mph 92% 0.15 in
07:59 57.7 °F 55.4 °F 29.84 in SSW 2.0 mph 8.0 mph 92% 0.15 in
08:04 57.7 °F 55.4 °F 29.83 in SW 2.0 mph 5.0 mph 92% 0.16 in
08:10 57.8 °F 55.5 °F 29.83 in Calm   3.0 mph 92% 0.16 in
08:15 57.9 °F 55.6 °F 29.83 in Calm     92% 0.18 in
08:19 58.0 °F 55.7 °F 29.81 in NE 3.0 mph 5.0 mph 92% 0.17 in
08:25 58.0 °F 55.7 °F 29.80 in ENE 2.0 mph 9.0 mph 92% 0.16 in
08:29 58.0 °F 55.7 °F 29.81 in ENE 2.0 mph 9.0 mph 92% 0.15 in
08:35 58.1 °F 55.8 °F 29.81 in Calm   2.0 mph 92% 0.14 in
08:40 58.2 °F 55.9 °F 29.81 in Calm     92% 0.12 in
08:45 58.2 °F 55.9 °F 29.82 in Calm     92% 0.10 in
08:50 58.5 °F 56.5 °F 29.83 in SW 1.0 mph 6.0 mph 93% 0.08 in
08:55 58.5 °F 56.2 °F 29.83 in WSW 2.0 mph 4.0 mph 92% 0.07 in
09:00 58.7 °F 56.7 °F 29.83 in Calm   5.0 mph 93% 0.06 in
09:05 59.0 °F 57.0 °F 29.83 in WSW 3.0 mph 8.0 mph 93% 0.05 in
09:10 59.2 °F 56.9 °F 29.83 in West 3.0 mph 9.0 mph 92% 0.04 in
09:14 59.3 °F 57.0 °F 29.83 in Calm   6.0 mph 92% 0.02 in
09:19 59.4 °F 57.1 °F 29.84 in WSW 6.0 mph 9.0 mph 92% 0.01 in
09:24 59.5 °F 56.9 °F 29.84 in WSW 2.0 mph 6.0 mph 91% 0.01 in
09:29 59.5 °F 56.9 °F 29.84 in WSW 4.0 mph 7.0 mph 91% 0.00 in
09:34 59.7 °F 57.1 °F 29.84 in WSW 3.0 mph 7.0 mph 91% 0.00 in
09:39 59.9 °F 57.3 °F 29.84 in West 3.0 mph 7.0 mph 91% 0.00 in
09:45 60.0 °F 57.1 °F 29.84 in West 2.0 mph 8.0 mph 90% 0.00 in
09:50 60.3 °F 57.4 °F 29.84 in Calm   7.0 mph 90% 0.00 in
09:55 60.3 °F 57.4 °F 29.84 in West 3.0 mph 7.0 mph 90% 0.00 in
10:00 60.6 °F 57.7 °F 29.84 in WNW 5.0 mph 6.0 mph 90% 0.00 in
10:05 60.9 °F 57.9 °F 29.84 in West 5.0 mph 5.0 mph 90% 0.00 in
10:09 61.6 °F 58.3 °F 29.83 in West 3.0 mph 9.0 mph 89% 0.00 in
10:14 62.8 °F 59.5 °F 29.84 in West 4.0 mph 9.0 mph 89% 0.00 in
10:19 62.5 °F 58.6 °F 29.84 in SW 5.0 mph 10.0 mph 87% 0.00 in
10:25 62.9 °F 59.0 °F 29.84 in West 6.0 mph 7.0 mph 87% 0.00 in
10:29 62.9 °F 58.3 °F 29.84 in WNW 5.0 mph 7.0 mph 85% 0.00 in
10:34 63.0 °F 58.4 °F 29.84 in West 2.0 mph 9.0 mph 85% 0.00 in
10:39 63.1 °F 58.5 °F 29.84 in WNW 3.0 mph 9.0 mph 85% 0.00 in
10:44 62.9 °F 58.0 °F 29.84 in West 3.0 mph 9.0 mph 84% 0.00 in
10:50 63.1 °F 58.2 °F 29.84 in West 2.0 mph 7.0 mph 84% 0.00 in
10:55 63.2 °F 58.6 °F 29.84 in Calm   8.0 mph 85% 0.00 in
11:00 63.8 °F 58.2 °F 29.84 in WSW 3.0 mph 6.0 mph 82% 0.00 in
11:05 64.0 °F 58.4 °F 29.84 in SW 5.0 mph 7.0 mph 82% 0.00 in
11:10 65.7 °F 60.1 °F 29.84 in WNW 1.0 mph 6.0 mph 82% 0.00 in
11:14 65.5 °F 58.5 °F 29.84 in West 3.0 mph 6.0 mph 78% 0.00 in
11:19 66.7 °F 59.3 °F 29.84 in WSW 4.0 mph 8.0 mph 77% 0.00 in
11:24 67.0 °F 58.8 °F 29.84 in WSW 3.0 mph 8.0 mph 75% 0.00 in
11:29 66.8 °F 57.5 °F 29.84 in WNW 8.0 mph 9.0 mph 72% 0.00 in
11:35 66.1 °F 57.2 °F 29.84 in West 2.0 mph 10.0 mph 73% 0.00 in
11:39 66.6 °F 57.7 °F 29.84 in WNW 4.0 mph 6.0 mph 73% 0.00 in
11:44 66.5 °F 57.2 °F 29.84 in West 3.0 mph 7.0 mph 72% 0.00 in
11:49 66.4 °F 57.1 °F 29.84 in West 3.0 mph 8.0 mph 72% 0.00 in
11:54 66.5 °F 57.2 °F 29.84 in WSW 4.0 mph 7.0 mph 72% 0.00 in
12:00 66.9 °F 57.2 °F 29.84 in West 3.0 mph 7.0 mph 71% 0.00 in
12:05 67.0 °F 57.3 °F 29.84 in WSW 5.0 mph 9.0 mph 71% 0.00 in
12:10 66.8 °F 57.1 °F 29.84 in SW 4.0 mph 7.0 mph 71% 0.00 in
12:14 66.7 °F 57.0 °F 29.84 in West 3.0 mph 7.0 mph 71% 0.00 in
12:19 67.4 °F 57.7 °F 29.84 in West 3.0 mph 7.0 mph 71% 0.00 in
12:24 67.2 °F 56.7 °F 29.84 in West 4.0 mph 8.0 mph 69% 0.00 in
12:30 67.5 °F 57.4 °F 29.84 in West 4.0 mph 10.0 mph 70% 0.00 in
12:35 66.7 °F 56.2 °F 29.84 in West 4.0 mph 11.0 mph 69% 0.00 in
12:40 66.1 °F 56.0 °F 29.83 in SW 2.0 mph 8.0 mph 70% 0.00 in
12:44 66.3 °F 56.6 °F 29.84 in West 5.0 mph 7.0 mph 71% 0.00 in
12:49 66.7 °F 57.4 °F 29.83 in WNW 4.0 mph 8.0 mph 72% 0.00 in
12:55 66.6 °F 57.3 °F 29.83 in SSW 5.0 mph 8.0 mph 72% 0.00 in
13:04 65.4 °F 57.3 °F 29.83 in SW 5.0 mph 10.0 mph 75% 0.00 in
13:09 65.1 °F 57.7 °F 29.84 in SW 2.0 mph 11.0 mph 77% 0.00 in
13:15 64.8 °F 56.7 °F 29.83 in SW 9.0 mph 14.0 mph 75% 0.00 in
13:20 64.8 °F 56.7 °F 29.84 in SW 6.0 mph 14.0 mph 75% 0.00 in
13:24 64.2 °F 56.8 °F 29.84 in WSW 6.0 mph 13.0 mph 77% 0.00 in
13:29 64.1 °F 57.8 °F 29.84 in WSW 6.0 mph 14.0 mph 80% 0.00 in
13:34 64.3 °F 58.7 °F 29.84 in WSW 6.0 mph 14.0 mph 82% 0.00 in
13:40 64.7 °F 58.7 °F 29.84 in WSW 5.0 mph 10.0 mph 81% 0.00 in
13:45 65.0 °F 58.7 °F 29.84 in WSW 5.0 mph 11.0 mph 80% 0.00 in
13:49 65.2 °F 58.5 °F 29.84 in WSW 9.0 mph 11.0 mph 79% 0.00 in
13:54 65.0 °F 58.3 °F 29.84 in NW 5.0 mph 11.0 mph 79% 0.00 in
13:59 65.5 °F 58.5 °F 29.84 in SW 5.0 mph 10.0 mph 78% 0.00 in
14:04 66.1 °F 58.3 °F 29.84 in WSW 9.0 mph 10.0 mph 76% 0.00 in
14:09 65.9 °F 58.1 °F 29.84 in WSW 6.0 mph 10.0 mph 76% 0.00 in
14:14 66.1 °F 58.7 °F 29.84 in West 5.0 mph 9.0 mph 77% 0.00 in
14:19 66.1 °F 57.9 °F 29.84 in SW 4.0 mph 10.0 mph 75% 0.00 in
14:24 65.9 °F 57.7 °F 29.84 in WSW 6.0 mph 12.0 mph 75% 0.00 in
14:29 66.3 °F 58.1 °F 29.84 in WSW 6.0 mph 15.0 mph 75% 0.00 in
14:35 66.4 °F 58.2 °F 29.84 in WSW 6.0 mph 15.0 mph 75% 0.00 in
14:40 66.3 °F 58.1 °F 29.84 in WSW 7.0 mph 12.0 mph 75% 0.00 in
14:45 66.4 °F 58.2 °F 29.84 in WSW 6.0 mph 13.0 mph 75% 0.00 in
14:49 67.0 °F 58.4 °F 29.83 in West 6.0 mph 13.0 mph 74% 0.00 in
14:54 67.4 °F 58.4 °F 29.83 in West 5.0 mph 15.0 mph 73% 0.00 in
14:59 67.3 °F 58.0 °F 29.83 in WSW 7.0 mph 13.0 mph 72% 0.00 in
15:04 66.9 °F 57.6 °F 29.83 in WSW 10.0 mph 21.0 mph 72% 0.00 in
15:09 66.4 °F 57.5 °F 29.83 in WSW 12.0 mph 16.0 mph 73% 0.00 in
15:15 66.0 °F 56.7 °F 29.83 in SW 10.0 mph 13.0 mph 72% 0.00 in
15:19 65.9 °F 55.8 °F 29.84 in WSW 7.0 mph 13.0 mph 70% 0.00 in
15:24 66.3 °F 55.4 °F 29.84 in WSW 7.0 mph 13.0 mph 68% 0.00 in
15:29 66.8 °F 55.1 °F 29.84 in WSW 6.0 mph 17.0 mph 66% 0.00 in
15:34 66.7 °F 54.6 °F 29.84 in WSW 7.0 mph 17.0 mph 65% 0.00 in
15:39 66.2 °F 54.5 °F 29.84 in WSW 7.0 mph 13.0 mph 66% 0.00 in
15:44 65.8 °F 54.5 °F 29.84 in WSW 7.0 mph 14.0 mph 67% 0.00 in
15:50 65.6 °F 54.8 °F 29.84 in SSW 8.0 mph 15.0 mph 68% 0.00 in
15:54 65.4 °F 55.4 °F 29.84 in WSW 8.0 mph 20.0 mph 70% 0.00 in
15:59 65.2 °F 55.6 °F 29.84 in WSW 9.0 mph 20.0 mph 71% 0.00 in
16:04 65.1 °F 55.8 °F 29.85 in SW 6.0 mph 17.0 mph 72% 0.00 in
16:09 65.1 °F 55.8 °F 29.85 in SSW 4.0 mph 15.0 mph 72% 0.00 in
16:14 65.8 °F 56.5 °F 29.85 in SW 9.0 mph 11.0 mph 72% 0.00 in
16:19 66.3 °F 56.6 °F 29.85 in SW 13.0 mph 16.0 mph 71% 0.00 in
16:24 65.9 °F 56.6 °F 29.85 in WSW 11.0 mph 18.0 mph 72% 0.00 in
16:29 66.3 °F 57.4 °F 29.85 in SW 8.0 mph 18.0 mph 73% 0.00 in
16:34 67.6 °F 57.9 °F 29.84 in WSW 9.0 mph 18.0 mph 71% 0.00 in
16:39 67.5 °F 58.2 °F 29.84 in WSW 9.0 mph 18.0 mph 72% 0.00 in
16:44 68.1 °F 58.3 °F 29.84 in SW 13.0 mph 16.0 mph 71% 0.00 in
16:49 67.9 °F 56.9 °F 29.84 in SW 9.0 mph 23.0 mph 68% 0.00 in
16:55 67.9 °F 56.9 °F 29.84 in WSW 18.0 mph 20.0 mph 68% 0.00 in
16:59 67.3 °F 56.8 °F 29.84 in WSW 9.0 mph 20.0 mph 69% 0.00 in
17:04 67.0 °F 56.9 °F 29.85 in WSW 9.0 mph 20.0 mph 70% 0.00 in
17:10 67.1 °F 57.0 °F 29.85 in WSW 8.0 mph 17.0 mph 70% 0.00 in
17:14 68.3 °F 57.7 °F 29.84 in WSW 11.0 mph 16.0 mph 69% 0.00 in
17:19 68.8 °F 57.4 °F 29.85 in NW 11.0 mph 16.0 mph 67% 0.00 in
17:24 68.5 °F 57.1 °F 29.85 in West 11.0 mph 19.0 mph 67% 0.00 in
17:29 68.0 °F 57.0 °F 29.85 in West 9.0 mph 19.0 mph 68% 0.00 in
17:34 67.4 °F 56.9 °F 29.85 in West 4.0 mph 21.0 mph 69% 0.00 in
17:39 67.1 °F 56.6 °F 29.85 in WSW 6.0 mph 16.0 mph 69% 0.00 in
17:44 67.1 °F 56.6 °F 29.85 in SW 11.0 mph 16.0 mph 69% 0.00 in
17:49 67.0 °F 56.9 °F 29.85 in West 5.0 mph 18.0 mph 70% 0.00 in
17:54 67.1 °F 57.4 °F 29.85 in WSW 5.0 mph 13.0 mph 71% 0.00 in
17:59 67.2 °F 57.5 °F 29.85 in WSW 6.0 mph 13.0 mph 71% 0.00 in
18:04 68.1 °F 57.1 °F 29.85 in WSW 6.0 mph 12.0 mph 68% 0.00 in
18:09 68.7 °F 55.6 °F 29.85 in WSW 7.0 mph 16.0 mph 63% 0.00 in
18:14 68.8 °F 55.7 °F 29.85 in West 8.0 mph 16.0 mph 63% 0.00 in
18:19 68.7 °F 55.2 °F 29.85 in West 7.0 mph 14.0 mph 62% 0.00 in
18:24 68.6 °F 55.1 °F 29.85 in WSW 10.0 mph 11.0 mph 62% 0.00 in
18:29 68.3 °F 54.8 °F 29.86 in WSW 6.0 mph 16.0 mph 62% 0.00 in
18:34 68.0 °F 54.5 °F 29.85 in West 2.0 mph 16.0 mph 62% 0.00 in
18:39 67.7 °F 54.6 °F 29.86 in West 4.0 mph 10.0 mph 63% 0.00 in
18:44 67.5 °F 54.5 °F 29.86 in SW 8.0 mph 10.0 mph 63% 0.00 in
18:49 67.4 °F 54.4 °F 29.86 in West 14.0 mph 17.0 mph 63% 0.00 in
18:54 67.4 °F 54.4 °F 29.86 in West 7.0 mph 14.0 mph 63% 0.00 in
18:59 67.2 °F 54.2 °F 29.87 in WNW 7.0 mph 15.0 mph 63% 0.00 in
19:04 67.0 °F 54.0 °F 29.86 in West 8.0 mph 17.0 mph 63% 0.00 in
19:09 66.7 °F 54.1 °F 29.87 in West 7.0 mph 17.0 mph 64% 0.00 in
19:14 66.4 °F 53.8 °F 29.87 in West 6.0 mph 14.0 mph 64% 0.00 in
19:19 66.2 °F 54.1 °F 29.87 in West 6.0 mph 14.0 mph 65% 0.00 in
19:24 65.9 °F 53.8 °F 29.88 in WSW 5.0 mph 14.0 mph 65% 0.00 in
19:29 65.6 °F 53.9 °F 29.87 in West 4.0 mph 11.0 mph 66% 0.00 in
19:34 65.4 °F 53.7 °F 29.88 in West 6.0 mph 11.0 mph 66% 0.00 in
19:39 65.4 °F 54.2 °F 29.88 in West 6.0 mph 10.0 mph 67% 0.00 in
19:44 65.2 °F 54.0 °F 29.88 in West 11.0 mph 15.0 mph 67% 0.00 in
19:49 65.0 °F 54.2 °F 29.88 in West 7.0 mph 13.0 mph 68% 0.00 in
19:54 65.0 °F 54.2 °F 29.88 in WNW 2.0 mph 13.0 mph 68% 0.00 in
19:59 64.9 °F 54.1 °F 29.88 in West 5.0 mph 11.0 mph 68% 0.00 in
20:04 65.0 °F 54.2 °F 29.89 in West 5.0 mph 11.0 mph 68% 0.00 in
20:09 65.0 °F 54.2 °F 29.89 in West 4.0 mph 10.0 mph 68% 0.00 in
20:14 65.1 °F 54.3 °F 29.89 in West 3.0 mph 9.0 mph 68% 0.00 in
20:19 65.2 °F 54.4 °F 29.89 in West 4.0 mph 11.0 mph 68% 0.00 in
20:24 65.2 °F 54.4 °F 29.89 in West 7.0 mph 11.0 mph 68% 0.00 in
20:30 65.3 °F 54.5 °F 29.89 in WNW 4.0 mph 11.0 mph 68% 0.00 in
20:34 65.3 °F 54.5 °F 29.90 in SW 5.0 mph 10.0 mph 68% 0.00 in
20:39 65.4 °F 54.6 °F 29.90 in West 4.0 mph 10.0 mph 68% 0.00 in
20:44 65.5 °F 54.7 °F 29.90 in West 3.0 mph 8.0 mph 68% 0.00 in
20:49 65.5 °F 54.7 °F 29.90 in West 8.0 mph 9.0 mph 68% 0.00 in
20:54 65.5 °F 54.7 °F 29.90 in West 3.0 mph 9.0 mph 68% 0.00 in
20:59 65.5 °F 54.7 °F 29.90 in WNW 1.0 mph 9.0 mph 68% 0.00 in
21:04 65.5 °F 54.7 °F 29.90 in WSW 3.0 mph 7.0 mph 68% 0.00 in
21:09 65.4 °F 55.0 °F 29.90 in West 4.0 mph 9.0 mph 69% 0.00 in
21:14 65.2 °F 54.8 °F 29.90 in West 4.0 mph 9.0 mph 69% 0.00 in
21:19 65.1 °F 54.7 °F 29.90 in West 4.0 mph 9.0 mph 69% 0.00 in
21:24 64.9 °F 54.5 °F 29.90 in West 4.0 mph 9.0 mph 69% 0.00 in
21:29 64.9 °F 54.5 °F 29.90 in West 5.0 mph 11.0 mph 69% 0.00 in
21:34 64.7 °F 54.7 °F 29.90 in West 5.0 mph 11.0 mph 70% 0.00 in
21:39 64.5 °F 54.5 °F 29.89 in West 4.0 mph 11.0 mph 70% 0.00 in
21:44 64.5 °F 54.5 °F 29.89 in West 7.0 mph 8.0 mph 70% 0.00 in
21:49 64.4 °F 54.4 °F 29.89 in WSW 6.0 mph 9.0 mph 70% 0.00 in
21:54 64.2 °F 54.6 °F 29.89 in WSW 2.0 mph 9.0 mph 71% 0.00 in
21:59 64.2 °F 54.6 °F 29.89 in West 5.0 mph 8.0 mph 71% 0.00 in
22:04 64.1 °F 54.5 °F 29.89 in WSW 2.0 mph 7.0 mph 71% 0.00 in
22:09 64.0 °F 54.4 °F 29.90 in West 6.0 mph 9.0 mph 71% 0.00 in
22:14 64.0 °F 54.4 °F 29.90 in West 4.0 mph 9.0 mph 71% 0.00 in
22:19 64.0 °F 54.4 °F 29.90 in West 4.0 mph 9.0 mph 71% 0.00 in
22:24 63.9 °F 54.7 °F 29.90 in West 4.0 mph 11.0 mph 72% 0.00 in
22:29 63.9 °F 54.7 °F 29.90 in WNW 5.0 mph 10.0 mph 72% 0.00 in
22:34 63.9 °F 54.7 °F 29.90 in WNW 2.0 mph 9.0 mph 72% 0.00 in
22:39 63.8 °F 54.6 °F 29.90 in WSW 4.0 mph 10.0 mph 72% 0.00 in
22:44 63.8 °F 54.6 °F 29.90 in West 4.0 mph 10.0 mph 72% 0.00 in
22:49 63.6 °F 54.4 °F 29.90 in West 4.0 mph 9.0 mph 72% 0.00 in
22:54 63.7 °F 54.5 °F 29.90 in WSW 4.0 mph 8.0 mph 72% 0.00 in
22:59 63.7 °F 54.5 °F 29.90 in West 5.0 mph 8.0 mph 72% 0.00 in
23:04 63.7 °F 54.5 °F 29.89 in West 1.0 mph 7.0 mph 72% 0.00 in
23:09 63.6 °F 54.8 °F 29.89 in WSW 2.0 mph 7.0 mph 73% 0.00 in
23:24 63.7 °F 55.3 °F 29.89 in WSW 2.0 mph 9.0 mph 74% 0.00 in
23:29 63.7 °F 55.3 °F 29.89 in SW 2.0 mph 7.0 mph 74% 0.00 in
23:34 63.6 °F 55.2 °F 29.89 in Calm   5.0 mph 74% 0.00 in
23:39 63.5 °F 55.4 °F 29.89 in SW 3.0 mph 5.0 mph 75% 0.00 in
23:44 63.8 °F 55.7 °F 29.89 in WSW 3.0 mph 8.0 mph 75% 0.00 in
23:49 63.9 °F 55.4 °F 29.89 in WSW 3.0 mph 8.0 mph 74% 0.00 in
23:54 63.8 °F 55.7 °F 29.89 in WSW 2.0 mph 4.0 mph 75% 0.00 in
23:59 63.7 °F 56.0 °F 29.89 in SW 2.0 mph 6.0 mph 76% 0.00 in
Buffalo, New York, USA
Compliments of Weather Underground - 2.5 mb